[[{"header":{"parameterUnit":"m.s-1","parameterCategory":1,"la1":30.2991,"la2":30.254,"lo1":-89.0895,"lo2":-89.0444,"dy":0.0017,"dx":0.0017,"nx":28,"ny":28,"refTime":"2025-09-11T09:00:00:Z","depth":0,"parameterNumber":2,"parameterNumberName":"U-component_of_WINDS"},"data":[0,0,0,0,0,0,0,0,0,0,0,0,0,0,0,0,0,0,0,0,0,0,0,0,0,0,0,0,0,0,0,0,0,0,0,0,0,0,0,0,0,0,0,0,0,0,0,0,0,0,0,0,0,0,0,0,0,0,1.653,1.653,0,1.653,1.653,1.653,1.649,1.6489,1.6488,1.6487,1.6487,1.6487,1.6488,0,0,0,0,0,0,0,0,0,0,0,0,0,1.6495,1.6496,1.653,1.653,1.653,1.653,1.653,1.653,1.649,1.6489,1.6488,1.6486,1.6486,1.6487,1.6489,0,0,0,0,0,0,0,0,0,0,0,0,0,1.6504,1.6496,1.653,1.651,1.6508,1.653,1.653,1.653,1.649,1.6489,1.6487,1.6486,1.6486,1.6487,1.6489,1.6529,0,0,1.6493,1.6494,0,0,0,0,0,0,0,0,1.6504,1.6506,1.6513,1.6512,1.651,1.6508,1.6518,1.653,1.6491,1.6497,1.6487,1.6485,1.6495,1.6496,1.6499,1.6529,1.6529,1.6493,1.6494,1.6495,1.6495,0,0,0,0,0,0,0,1.6503,1.6505,1.653,1.6513,1.6511,1.6501,1.6501,1.652,1.6505,1.6497,1.6494,1.6494,1.6494,1.6498,1.6499,1.6529,1.6493,1.6495,1.6495,1.6496,1.6592,1.6594,0,0,0,0,0,0,1.6505,1.6505,1.653,1.653,1.6503,1.6503,1.6503,1.651,1.6505,1.6502,1.6496,1.6492,1.6496,1.6497,1.6499,1.6545,1.6495,1.6496,1.6497,1.659,1.6592,1.6594,0,0,0,0,0,0,1.6505,1.6508,1.653,1.6517,1.6519,1.6505,1.6515,1.6511,1.6515,1.6504,1.6501,1.6502,1.6495,1.6497,1.6522,1.6544,1.6497,1.6498,1.6588,1.6591,1.6593,1.6638,0,0,0,0,0,0,1.6504,1.6508,1.6523,1.6518,1.652,1.6553,1.6516,1.6512,1.6518,1.6514,1.651,1.6507,1.6494,1.652,1.6523,1.6545,1.6499,1.6586,1.659,1.6593,1.6635,1.6642,1.6648,0,0,0,0,0,1.6503,1.6536,1.6524,1.6528,1.6539,1.6555,1.6556,1.654,1.652,1.6535,1.6528,1.6507,1.6542,1.6523,1.6526,1.6549,1.6585,1.6589,1.6592,1.6632,1.6641,1.6648,0,0,0,0,0,0,1.6545,1.6535,1.6522,1.6554,1.6556,1.6548,1.6566,1.655,1.6557,1.6553,1.6532,1.6532,1.656,1.6557,1.6536,1.6588,1.656,1.6564,1.6588,1.6597,1.6603,1.6603,1.65,0,0,0,0,0,1.6558,1.6572,1.6563,1.6592,1.6594,1.658,1.6587,1.6574,1.6575,1.6575,1.657,1.6571,1.6582,1.6589,1.6599,1.6635,1.6633,1.6652,1.6659,1.6665,1.6668,1.6686,1.6695,1.6607,1.6607,1.6607,0,0,1.6585,1.6581,1.6591,1.66,1.66,1.6615,1.6581,1.6598,1.6608,1.6578,1.6601,1.6597,1.6597,1.6628,1.6641,1.6626,1.6693,1.667,1.6674,1.6675,1.6691,1.6699,1.6707,1.6609,1.6609,1.6608,0,0,1.6641,1.664,1.6664,1.6665,1.6665,1.6656,1.6662,1.6657,1.6653,1.6676,1.6653,1.6665,1.6685,1.6686,1.6689,1.6746,1.6727,1.675,1.6785,1.6802,1.6809,1.6815,1.6834,1.6841,1.6754,1.6754,1.6754,0,1.6674,1.6695,1.6679,1.6697,1.6701,1.6675,1.6698,1.67,1.6703,1.6707,1.6691,1.6714,1.6713,1.6742,1.6756,1.676,1.6766,1.6749,1.681,1.6815,1.6821,1.6839,1.6846,1.6757,1.6756,1.6756,1.6756,0,1.6736,1.6751,1.6771,1.6774,1.6781,1.6802,1.6788,1.6797,1.6785,1.6777,1.6801,1.6798,1.6806,1.6813,1.68,1.6841,1.6832,1.6813,1.6784,1.6832,1.6848,1.6855,1.676,1.6759,1.6759,1.6758,0,0,1.6817,1.6811,1.6819,1.682,1.6818,1.6829,1.685,1.6858,1.6865,1.6869,1.6884,1.6902,1.6885,1.6888,1.6876,1.6892,1.6936,1.6871,1.6871,1.6882,1.6979,1.6991,1.7,1.6924,1.6925,1.6926,1.6978,0,1.687,1.6904,1.6889,1.6924,1.6937,1.6913,1.693,1.6931,1.6925,1.6935,1.6929,1.6941,1.6918,1.692,1.6934,1.6927,1.6955,1.6924,1.6937,1.6938,1.6936,1.7009,1.7022,1.7071,1.6985,1.6986,1.6987,0,1.6936,1.6942,1.6978,1.6974,1.6979,1.6995,1.7001,1.7012,1.7012,1.7007,1.7011,1.6995,1.7014,1.6987,1.7012,1.6992,1.6997,1.6994,1.6996,1.6995,1.6964,1.7008,1.7086,1.7093,1.6997,1.6996,1.6995,0,1.699,1.7007,1.7031,1.7033,1.7029,1.704,1.7039,1.7038,1.7044,1.705,1.7053,1.7061,1.7065,1.7071,1.7058,1.704,1.7085,1.7057,1.708,1.7081,1.7089,1.7089,1.7168,1.7096,1.7096,1.7096,1.7096,0,1.705,1.7072,1.7055,1.7069,1.7094,1.7077,1.7102,1.7098,1.7098,1.7111,1.7091,1.7103,1.7086,1.7097,1.7087,1.7109,1.7111,1.7107,1.7104,1.7108,1.7108,1.7109,1.7105,1.7098,1.7097,1.7097,1.7097,0,1.7113,1.7102,1.7126,1.7121,1.712,1.7138,1.7133,1.7146,1.7139,1.7156,1.7159,1.7148,1.7159,1.7147,1.7159,1.7152,1.7181,1.7174,1.7181,1.7178,1.7202,1.7199,1.7283,1.7292,1.7216,1.7217,1.7218,0,1.7151,1.7168,1.7164,1.7171,1.7171,1.7184,1.7189,1.7174,1.7181,1.7183,1.7195,1.7206,1.7213,1.7233,1.7226,1.7234,1.7226,1.7255,1.7227,1.723,1.7224,1.7223,1.7224,1.726,1.7261,1.7261,1.7262,0,1.7219,1.7213,1.7222,1.7229,1.7237,1.7242,1.7245,1.7252,1.7237,1.7245,1.7257,1.7263,1.7274,1.7284,1.7291,1.7289,1.7273,1.7271,1.7277,1.728,1.7282,1.728,1.7194,1.7269,1.7268,1.7268,1.7267,1.7267,1.7269,1.7283,1.7282,1.7293,1.7294,1.7298,1.7309,1.7304,1.7314,1.7322,1.7313,1.7327,1.7327,1.7334,1.7334,1.7345,1.7333,1.7341,1.7343,1.7345,1.7348,1.7283,1.7347,1.7346,1.7346,1.7346,1.7346,0,1.7335,1.7333,1.7344,1.7349,1.7357,1.7342,1.7345,1.7353,1.7366,1.7368,1.7375,1.7389,1.7398,1.7392,1.7401,1.741,1.7403,1.7413,1.7411,1.7411,1.7359,1.7353,1.7419,1.7419,1.7419,1.7419,1.7419,1.7419,1.737,1.7391,1.7385,1.7407,1.7406,1.7419,1.7422,1.7426,1.7427,1.7443,1.7451,1.7447,1.7445,1.7454,1.7462,1.746,1.7463,1.7475,1.747,1.7422,1.7415,1.7408,1.7401,1.7477,1.7477,1.7521,1.7521,1.7522]},{"header":{"parameterUnit":"m.s-1","parameterCategory":1,"la1":30.2991,"la2":30.254,"lo1":-89.0895,"lo2":-89.0444,"dy":0.0017,"dx":0.0017,"nx":28,"ny":28,"refTime":"2025-09-11T09:00:00:Z","depth":0,"parameterNumber":3,"parameterNumberName":"V-component_of_WINDS"},"data":[0,0,0,0,0,0,0,0,0,0,0,0,0,0,0,0,0,0,0,0,0,0,0,0,0,0,0,0,0,0,0,0,0,0,0,0,0,0,0,0,0,0,0,0,0,0,0,0,0,0,0,0,0,0,0,0,0,0,-0.9524,-0.9525,0,-0.9626,-0.9628,-0.9629,-0.968,-0.968,-0.968,-0.968,-0.9786,-0.9789,-0.9791,0,0,0,0,0,0,0,0,0,0,0,0,0,-0.9374,-0.9377,-0.9524,-0.9525,-0.9527,-0.9626,-0.9628,-0.9629,-0.968,-0.968,-0.968,-0.968,-0.9785,-0.9788,-0.9792,0,0,0,0,0,0,0,0,0,0,0,0,0,-0.9454,-0.9378,-0.9524,-0.9564,-0.9569,-0.9626,-0.9628,-0.9629,-0.968,-0.968,-0.968,-0.968,-0.9784,-0.9788,-0.9792,-0.9817,0,0,-0.9805,-0.9807,0,0,0,0,0,0,0,0,-0.945,-0.946,-0.9557,-0.9561,-0.9567,-0.9641,-0.9614,-0.9692,-0.968,-0.9638,-0.968,-0.968,-0.9738,-0.9746,-0.9765,-0.9822,-0.9827,-0.9805,-0.9808,-0.981,-0.9811,0,0,0,0,0,0,0,-0.9444,-0.9456,-0.9565,-0.9558,-0.9564,-0.9577,-0.9589,-0.9629,-0.9686,-0.9641,-0.9645,-0.9657,-0.974,-0.976,-0.9768,-0.9828,-0.9805,-0.9809,-0.9811,-0.9813,-0.9913,-0.9913,0,0,0,0,0,0,-0.9432,-0.9451,-0.9561,-0.9568,-0.9507,-0.958,-0.9593,-0.9617,-0.9686,-0.9697,-0.9657,-0.9659,-0.9753,-0.9763,-0.9771,-0.9806,-0.981,-0.9813,-0.9816,-0.9913,-0.9913,-0.9913,0,0,0,0,0,0,-0.9428,-0.9441,-0.9557,-0.951,-0.9526,-0.9583,-0.9609,-0.9619,-0.9639,-0.9697,-0.9708,-0.9667,-0.9754,-0.9766,-0.9806,-0.9811,-0.9815,-0.9819,-0.9913,-0.9913,-0.9913,-0.9876,0,0,0,0,0,0,-0.9424,-0.944,-0.9449,-0.951,-0.9528,-0.9589,-0.9609,-0.9621,-0.9646,-0.965,-0.971,-0.972,-0.9755,-0.9799,-0.981,-0.9817,-0.9822,-0.9913,-0.9913,-0.9913,-0.9877,-0.9875,-0.9873,0,0,0,0,0,-0.9418,-0.9435,-0.945,-0.9463,-0.9542,-0.9589,-0.96,-0.9639,-0.9646,-0.9657,-0.9695,-0.9718,-0.9808,-0.9803,-0.9815,-0.9823,-0.9913,-0.9913,-0.9913,-0.9878,-0.9875,-0.9873,0,0,0,0,0,0,-0.9373,-0.9443,-0.9461,-0.9497,-0.9537,-0.9598,-0.9612,-0.9635,-0.9674,-0.9676,-0.9724,-0.9737,-0.9773,-0.9802,-0.9795,-0.9852,-0.9863,-0.9866,-0.9832,-0.983,-0.9828,-0.982,-0.9826,0,0,0,0,0,-0.9367,-0.94,-0.946,-0.9486,-0.9505,-0.9555,-0.9577,-0.9604,-0.9648,-0.9665,-0.9705,-0.9747,-0.9785,-0.9809,-0.9847,-0.9881,-0.9896,-0.9893,-0.9891,-0.9889,-0.9891,-0.9913,-0.9912,-0.9915,-0.9915,-0.9915,0,0,-0.9356,-0.9398,-0.9416,-0.9478,-0.9512,-0.9545,-0.9569,-0.9603,-0.9628,-0.967,-0.9711,-0.9742,-0.9791,-0.9829,-0.9848,-0.9855,-0.9894,-0.989,-0.9888,-0.9891,-0.9913,-0.9913,-0.9912,-0.9915,-0.9915,-0.9915,0,0,-0.9352,-0.9387,-0.9413,-0.9447,-0.9498,-0.9531,-0.9537,-0.9595,-0.9618,-0.9659,-0.9692,-0.9723,-0.9787,-0.9821,-0.9847,-0.9857,-0.988,-0.9868,-0.9858,-0.9878,-0.9878,-0.9878,-0.9882,-0.9883,-0.987,-0.987,-0.987,0,-0.9331,-0.9382,-0.9424,-0.9456,-0.9482,-0.9522,-0.955,-0.958,-0.9641,-0.9659,-0.9666,-0.9748,-0.9784,-0.9831,-0.9833,-0.9853,-0.9862,-0.9861,-0.9874,-0.9875,-0.9875,-0.988,-0.9881,-0.9868,-0.9868,-0.9868,-0.9868,0,-0.9354,-0.9389,-0.9404,-0.9462,-0.949,-0.952,-0.9567,-0.9591,-0.9615,-0.9648,-0.9691,-0.9735,-0.9784,-0.9797,-0.9821,-0.9847,-0.985,-0.9865,-0.9877,-0.9873,-0.9878,-0.988,-0.9865,-0.9866,-0.9866,-0.9867,0,0,-0.9324,-0.9405,-0.941,-0.9437,-0.9497,-0.9525,-0.9556,-0.9604,-0.9623,-0.9665,-0.9693,-0.9747,-0.9761,-0.979,-0.9819,-0.9837,-0.9843,-0.985,-0.9852,-0.9848,-0.9875,-0.9864,-0.9865,-0.9859,-0.9859,-0.986,-0.9871,0,-0.9328,-0.9386,-0.9426,-0.9469,-0.9502,-0.9541,-0.9569,-0.9609,-0.964,-0.9674,-0.9709,-0.9747,-0.9762,-0.978,-0.98,-0.9838,-0.9849,-0.9838,-0.9886,-0.9887,-0.9873,-0.9868,-0.9855,-0.9864,-0.9873,-0.9874,-0.9874,0,-0.9341,-0.9381,-0.9427,-0.9484,-0.95,-0.9524,-0.9571,-0.9602,-0.9649,-0.9671,-0.9703,-0.9733,-0.9769,-0.9778,-0.9829,-0.982,-0.9843,-0.9865,-0.9866,-0.9872,-0.988,-0.9874,-0.9868,-0.9869,-0.9878,-0.9877,-0.9877,0,-0.9315,-0.938,-0.9417,-0.9439,-0.9506,-0.9522,-0.9551,-0.9598,-0.9624,-0.9665,-0.9683,-0.9728,-0.9752,-0.9787,-0.9828,-0.983,-0.9875,-0.9887,-0.9895,-0.9894,-0.9903,-0.9901,-0.99,-0.9916,-0.9916,-0.9916,-0.9916,0,-0.9316,-0.9343,-0.9406,-0.9428,-0.946,-0.9505,-0.9535,-0.9568,-0.9609,-0.9639,-0.9675,-0.9703,-0.9756,-0.979,-0.9823,-0.986,-0.9871,-0.9891,-0.9899,-0.9887,-0.9885,-0.9903,-0.9903,-0.9917,-0.9917,-0.9917,-0.9916,0,-0.9292,-0.9335,-0.9377,-0.9438,-0.9454,-0.9474,-0.9527,-0.955,-0.9584,-0.9622,-0.9633,-0.9687,-0.9729,-0.9774,-0.9831,-0.9854,-0.989,-0.9902,-0.9874,-0.9879,-0.9884,-0.9883,-0.9895,-0.9899,-0.9911,-0.9911,-0.9911,0,-0.9289,-0.9311,-0.9374,-0.9397,-0.9425,-0.946,-0.9487,-0.9533,-0.956,-0.9615,-0.9632,-0.9677,-0.9716,-0.9782,-0.9826,-0.9871,-0.9884,-0.9885,-0.9891,-0.9879,-0.9885,-0.9883,-0.9886,-0.9883,-0.9882,-0.9882,-0.9882,0,-0.9281,-0.9302,-0.9339,-0.9384,-0.9415,-0.9453,-0.9492,-0.9508,-0.9562,-0.959,-0.9634,-0.9663,-0.9722,-0.9767,-0.9817,-0.9848,-0.9874,-0.988,-0.9884,-0.9872,-0.9856,-0.9865,-0.9869,-0.9879,-0.9879,-0.9879,-0.988,-0.988,-0.9268,-0.929,-0.9338,-0.9378,-0.9412,-0.9448,-0.9474,-0.9511,-0.9548,-0.9599,-0.9624,-0.9668,-0.9716,-0.9785,-0.9816,-0.9851,-0.9859,-0.9865,-0.9866,-0.9867,-0.9865,-0.985,-0.986,-0.9861,-0.9861,-0.9861,-0.9861,0,-0.9262,-0.9295,-0.9332,-0.9386,-0.9418,-0.9439,-0.9484,-0.951,-0.9548,-0.9589,-0.9627,-0.9677,-0.9721,-0.9769,-0.9816,-0.9835,-0.9848,-0.9846,-0.9845,-0.9852,-0.9855,-0.9847,-0.9834,-0.9834,-0.9834,-0.9834,-0.9834,-0.9834,-0.9263,-0.93,-0.9327,-0.9382,-0.9415,-0.9458,-0.9482,-0.9515,-0.9549,-0.9604,-0.964,-0.9671,-0.9716,-0.9767,-0.9808,-0.9821,-0.9837,-0.9831,-0.9848,-0.985,-0.9852,-0.9854,-0.9846,-0.9834,-0.9834,-0.9842,-0.9842,-0.9842]}]]